#timestamp,LO_Frequency,Hit,Temp,Hum 
1479772815.7,286047246.6,N,0.0,0.0
1479772835.6,286047247.3,N,0.0,0.0
1479772855.4,286047247.0,N,0.0,0.0
1479772875.2,286047244.5,N,0.0,0.0
1479772895.1,286047246.7,N,0.0,0.0
1479772896.0,286047246.7,N,0.0,0.0
1479772915.8,286047246.7,N,0.0,0.0
1479772935.7,286047248.8,N,0.0,0.0
1479772955.5,286047246.5,N,0.0,0.0
1479772975.3,286047249.1,N,0.0,0.0
1479772995.2,286047248.7,N,0.0,0.0
1479773015.0,286047248.0,N,0.0,0.0
1479773015.9,286047248.0,N,0.0,0.0
1479773035.8,286047246.5,N,0.0,0.0
1479773055.6,286047246.2,N,0.0,0.0
1479773075.4,286047246.2,N,0.0,0.0
1479773095.3,286047249.1,N,0.0,0.0
1479773115.1,286047249.1,N,0.0,0.0
1479773135.9,286047248.5,N,0.0,0.0
1479773155.7,286047248.2,N,0.0,0.0
1479773175.5,286047250.0,N,0.0,0.0
1479773195.4,286047250.6,N,0.0,0.0
1479773215.2,286047250.5,N,0.0,0.0
1479773235.0,286047250.3,N,0.0,0.0
1479773235.9,286047250.3,N,0.0,0.0
1479773255.8,286047249.3,N,0.0,0.0
1479773275.6,286047250.0,N,0.0,0.0
1479773295.5,286047250.7,N,0.0,0.0
1479773315.3,286047250.3,N,0.0,0.0
1479773335.1,286047250.0,N,0.0,0.0
1479773355.9,286047250.1,N,0.0,0.0
1479773375.7,286047249.7,N,0.0,0.0
1479773395.5,286047249.5,N,0.0,0.0
1479773415.4,286047249.7,N,0.0,0.0
1479773435.2,286047249.6,N,0.0,0.0
1479773455.1,286047249.3,N,0.0,0.0
1479773456.0,286047249.3,N,0.0,0.0
1479773475.8,286047249.8,N,0.0,0.0
1479773495.6,286047252.0,N,0.0,0.0
1479773515.5,286047252.0,N,0.0,0.0
1479773535.3,286047252.1,N,0.0,0.0
1479773555.2,286047251.8,N,0.0,0.0
1479773575.9,286047251.0,N,0.0,0.0
1479773595.7,286047251.9,N,0.0,0.0
1479773615.6,286047247.8,N,0.0,0.0
1479773635.4,286047250.3,N,0.0,0.0
1479773655.3,286047250.1,N,0.0,0.0
1479773675.1,286047250.8,N,0.0,0.0
1479773676.0,286047250.8,N,0.0,0.0
1479773695.8,286047249.8,N,0.0,0.0
1479773715.7,286047249.3,N,0.0,0.0
1479773735.5,286047252.1,N,0.0,0.0
1479773755.3,286047251.8,N,0.0,0.0
1479773775.2,286047250.9,N,0.0,0.0
1479773795.0,286047253.2,N,0.0,0.0
1479773795.9,286047253.2,N,0.0,0.0
1479773815.8,286047255.2,N,0.0,0.0
1479773835.6,286047253.3,N,0.0,0.0
1479773855.4,286047253.4,N,0.0,0.0
1479773875.3,286047253.7,N,0.0,0.0
1479773895.1,286047252.5,N,0.0,0.0
1479773915.9,286047253.8,N,0.0,0.0
1479773935.7,286047253.5,N,0.0,0.0
1479773955.5,286047251.4,N,0.0,0.0
1479773975.4,286047251.5,N,0.0,0.0
1479773995.2,286047251.1,N,0.0,0.0
1479774015.0,286047253.5,N,0.0,0.0
1479774015.9,286047253.5,N,0.0,0.0
1479774035.8,286047253.1,N,0.0,0.0
1479774055.6,286047252.5,N,0.0,0.0
1479774075.5,286047252.9,N,0.0,0.0
1479774095.3,286047253.0,N,0.0,0.0
1479774115.1,286047253.9,N,0.0,0.0
1479774135.9,286047253.1,N,0.0,0.0
1479774155.7,286047254.0,N,0.0,0.0
1479774175.5,286047250.9,N,0.0,0.0
1479774195.4,286047252.2,N,0.0,0.0
1479774215.2,286047251.6,N,0.0,0.0
1479774235.1,286047251.7,N,0.0,0.0
1479774236.0,286047251.7,N,0.0,0.0
1479774255.8,286047251.8,N,0.0,0.0
1479774275.6,286047251.4,N,0.0,0.0
1479774295.5,286047253.3,N,0.0,0.0
1479774315.3,286047252.9,N,0.0,0.0
1479774335.2,286047253.1,N,0.0,0.0
1479774355.9,286047255.6,N,0.0,0.0
1479774375.7,286047255.3,N,0.0,0.0
1479774395.6,286047253.2,N,0.0,0.0
1479774415.4,286047252.6,N,0.0,0.0
1479774435.2,286047252.5,N,0.0,0.0
1479774455.1,286047254.8,N,0.0,0.0
1479774456.0,286047254.8,N,0.0,0.0
1479774475.8,286047254.3,N,0.0,0.0
1479774495.7,286047254.4,N,0.0,0.0
1479774515.5,286047254.4,N,0.0,0.0
1479774535.3,286047254.2,N,0.0,0.0
1479774555.2,286047254.3,N,0.0,0.0
1479774575.0,286047254.7,N,0.0,0.0
1479774575.9,286047254.7,N,0.0,0.0
1479774595.8,286047254.8,N,0.0,0.0
1479774615.6,286047254.7,N,0.0,0.0
1479774635.4,286047255.4,N,0.0,0.0
1479774655.3,286047255.6,N,0.0,0.0
1479774675.1,286047254.9,N,0.0,0.0
1479774695.9,286047255.0,N,0.0,0.0
1479774715.7,286047255.4,N,0.0,0.0
1479774735.5,286047254.8,N,0.0,0.0
1479774755.4,286047254.1,N,0.0,0.0
1479774775.2,286047256.4,N,0.0,0.0
1479774795.0,286047257.1,N,0.0,0.0
1479774795.9,286047257.1,N,0.0,0.0
1479774815.8,286047256.8,N,0.0,0.0
1479774835.6,286047254.1,N,0.0,0.0
1479774855.5,286047256.8,N,0.0,0.0
1479774875.3,286047254.5,N,0.0,0.0
1479774895.1,286047254.4,N,0.0,0.0
1479774915.9,286047254.1,N,0.0,0.0
1479774935.7,286047257.1,N,0.0,0.0
1479774955.5,286047254.2,N,0.0,0.0
1479774975.4,286047254.1,N,0.0,0.0
1479774995.2,286047257.2,N,0.0,0.0
1479775015.1,286047254.5,N,0.0,0.0
1479775016.0,286047254.5,N,0.0,0.0
1479775035.8,286047254.8,N,0.0,0.0
1479775055.6,286047254.1,N,0.0,0.0
1479775075.5,286047254.3,N,0.0,0.0
1479775095.3,286047256.6,N,0.0,0.0
1479775115.1,286047257.0,N,0.0,0.0
1479775135.9,286047256.5,N,0.0,0.0
1479775155.7,286047256.6,N,0.0,0.0
1479775175.6,286047256.1,N,0.0,0.0
1479775195.4,286047256.0,N,0.0,0.0
1479775215.2,286047255.9,N,0.0,0.0
1479775235.1,286047256.2,N,0.0,0.0
1479775236.0,286047256.2,N,0.0,0.0
1479775255.8,286047258.7,N,0.0,0.0
1479775275.7,286047258.3,N,0.0,0.0
1479775295.5,286047257.7,N,0.0,0.0
1479775315.3,286047257.8,N,0.0,0.0
1479775335.2,286047257.5,N,0.0,0.0
1479775355.0,286047258.1,N,0.0,0.0
1479775355.9,286047258.1,N,0.0,0.0
1479775375.7,286047258.3,N,0.0,0.0
1479775395.6,286047258.2,N,0.0,0.0
1479775415.4,286047259.6,N,0.0,0.0
1479775435.3,286047260.4,N,0.0,0.0
1479775455.1,286047258.6,N,0.0,0.0
1479775475.8,286047257.8,N,0.0,0.0
1479775495.7,286047259.8,N,0.0,0.0
1479775515.5,286047259.6,N,0.0,0.0
1479775535.4,286047261.9,N,0.0,0.0
1479775555.2,286047262.0,N,0.0,0.0
1479775575.0,286047261.9,N,0.0,0.0
1479775575.9,286047261.9,N,0.0,0.0
1479775595.8,286047261.9,N,0.0,0.0
1479775615.6,286047261.4,N,0.0,0.0
1479775635.4,286047261.4,N,0.0,0.0
1479775655.3,286047263.5,N,0.0,0.0
1479775675.1,286047261.2,N,0.0,0.0
1479775695.9,286047261.1,N,0.0,0.0
1479775715.7,286047261.2,N,0.0,0.0
1479775735.5,286047260.6,N,0.0,0.0
1479775755.4,286047260.8,N,0.0,0.0
1479775775.2,286047263.5,N,0.0,0.0
1479775795.0,286047263.4,N,0.0,0.0
1479775796.0,286047263.4,N,0.0,0.0
1479775815.8,286047263.4,N,0.0,0.0
1479775835.6,286047261.2,N,0.0,0.0
1479775855.5,286047260.8,N,0.0,0.0
1479775875.3,286047260.9,N,0.0,0.0
1479775895.1,286047263.4,N,0.0,0.0
1479775915.9,286047263.5,N,0.0,0.0
1479775935.7,286047261.2,N,0.0,0.0
1479775955.6,286047259.3,N,0.0,0.0
1479775975.4,286047261.5,N,0.0,0.0
1479775995.2,286047259.7,N,0.0,0.0
1479776015.1,286047259.7,N,0.0,0.0
1479776016.0,286047259.7,N,0.0,0.0
1479776035.8,286047259.4,N,0.0,0.0
1479776055.7,286047260.9,N,0.0,0.0
1479776075.5,286047260.5,N,0.0,0.0
1479776095.3,286047263.0,N,0.0,0.0
1479776115.2,286047263.4,N,0.0,0.0
1479776135.9,286047262.3,N,0.0,0.0
1479776155.7,286047261.2,N,0.0,0.0
1479776175.6,286047261.2,N,0.0,0.0
1479776195.4,286047263.2,N,0.0,0.0
1479776215.3,286047262.4,N,0.0,0.0
1479776235.1,286047262.7,N,0.0,0.0
1479776236.0,286047262.7,N,0.0,0.0
1479776255.8,286047262.7,N,0.0,0.0
1479776275.7,286047265.2,N,0.0,0.0
1479776295.5,286047264.4,N,0.0,0.0
1479776315.3,286047264.6,N,0.0,0.0
1479776335.2,286047264.6,N,0.0,0.0
1479776355.0,286047264.7,N,0.0,0.0
1479776355.9,286047264.7,N,0.0,0.0
1479776375.8,286047264.5,N,0.0,0.0
1479776395.6,286047264.9,N,0.0,0.0
